DW9727 Weather Reports


time (UTC)temp
F
wind
direction
speed
knots
gust
knots
rain 1hr
in
rain 24hr
in
rain mn
in
humidity
%
barometer
mb
20260903211711 96 199 6.1 12.2 0.00 0.00 0.00 50 1004.4
20260903210711 96 178 7.0 10.4 0.00 0.00 0.00 50 1004.4
20260903205711 95 207 4.3 17.4 0.00 0.00 0.00 50 1004.6
20260903204712 95 167 6.1 12.2 0.00 0.00 0.00 51 1004.6
20260903202711 95 142 7.8 12.2 0.00 0.00 0.00 51 1004.8
20260903201711 95 192 5.2 10.4 0.00 0.00 0.00 52 1004.7
20260903195711 94 205 2.6 13.0 0.00 0.00 0.00 55 1004.9
20260903194711 93 225 7.8 12.2 0.00 0.00 0.00 53 1004.9
20260903193710 93 200 6.1 13.0 0.00 0.00 0.00 52 1005.0
20260903192710 93 175 7.8 13.9 0.00 0.00 0.00 52 1005.0
20260903191710 93 184 7.8 13.0 0.00 0.00 0.00 53 1005.1
20260903190710 92 205 6.1 11.3 0.00 0.00 0.00 54 1005.0
20260903184710 91 219 8.7 14.8 0.00 0.00 0.00 55 1005.3
20260903183711 91 209 8.7 14.8 0.00 0.00 0.00 53 1005.5
20260903182711 91 217 7.8 13.9 0.00 0.00 0.00 56 1005.8
20260903181711 90 215 11.3 18.2 0.00 0.00 0.00 55 1006.0
20260903180711 90 217 8.7 17.4 0.00 0.00 0.00 56 1006.1
20260903175710 90 208 9.6 15.6 0.00 0.00 0.00 56 1006.0
20260903174710 90 211 11.3 20.9 0.00 0.00 0.00 56 1006.2
20260903173711 89 196 9.6 17.4 0.00 0.00 0.00 57 1006.1
20260903172711 89 164 8.7 15.6 0.00 0.00 0.00 56 1006.3
20260903170710 89 203 8.7 17.4 0.00 0.00 0.00 58 1006.5
20260903165711 89 203 7.8 14.8 0.00 0.00 0.00 58 1006.6
20260903164710 88 201 7.0 13.9 0.00 0.00 0.00 61 1006.5
20260903163710 87 178 7.8 13.0 0.00 0.00 0.00 61 1006.7
20260903161710 86 178 7.0 15.6 0.00 0.00 0.00 63 1006.7
20260903160711 85 180 7.0 10.4 0.00 0.00 0.00 61 1006.6
20260903155711 85 222 7.8 12.2 0.00 0.00 0.00 62 1006.4
20260903154711 85 173 6.1 11.3 0.00 0.00 0.00 63 1006.3
20260903153710 84 176 7.8 15.6 0.00 0.00 0.00 64 1006.3
20260903152710 84 194 8.7 14.8 0.00 0.00 0.00 64 1006.5
20260903150711 82 208 7.8 13.9 0.00 0.00 0.00 67 1006.3
20260903145710 81 229 8.7 13.9 0.00 0.00 0.00 67 1006.5
20260903142711 79 207 5.2 10.4 0.00 0.00 0.00 72 1007.1
20260903140711 77 205 2.6 6.1 0.00 0.00 0.00 75 1007.2
20260903135711 76 194 4.3 8.7 0.00 0.00 0.00 74 1006.9
20260903134710 77 194 5.2 7.0 0.00 0.00 0.00 74 1007.0
20260903133710 77 213 5.2 7.0 0.00 0.00 0.00 73 1007.0
20260903132710 76 234 4.3 7.0 0.00 0.00 0.00 74 1007.3
20260903131710 76 190 3.5 8.7 0.00 0.00 0.00 76 1007.2
20260903130710 75 204 5.2 7.8 0.00 0.00 0.00 76 1007.0
20260903125710 75 243 1.7 2.6 0.00 0.00 0.00 75 1007.0
20260903124711 75 267 1.7 2.6 0.00 0.00 0.00 74 1006.9
20260903123712 75 220 0.9 2.6 0.00 0.00 0.00 73 1006.5
20260903121711 76 186 1.7 6.1 0.00 0.00 0.00 72 1005.9
20260903115711 76 206 2.6 7.8 0.00 0.00 0.00 71 1005.7
20260903114710 77 180 4.3 8.7 0.00 0.00 0.00 70 1005.6
20260903113710 77 180 4.3 10.4 0.00 0.00 0.00 70 1005.6
20260903112711 77 174 6.1 11.3 0.00 0.00 0.00 69 1005.6
20260903111710 77 185 7.0 14.8 0.00 0.00 0.00 69 1005.4
20260903110711 78 191 7.8 13.9 0.00 0.00 0.00 68 1005.5
20260903105710 78 157 7.8 13.9 0.00 0.06 0.00 68 1005.5
20260903104711 78 182 7.8 13.9 0.00 0.06 0.00 67 1005.4
20260903103711 78 195 7.0 14.8 0.00 0.06 0.00 67 1005.4
20260903102710 78 168 7.8 13.0 0.00 0.06 0.00 67 1005.4
20260903101711 79 188 8.7 17.4 0.00 0.06 0.00 66 1005.3
20260903100710 79 196 7.0 12.2 0.00 0.06 0.00 66 1005.3
20260903095710 79 207 7.8 13.9 0.00 0.06 0.00 65 1005.4
20260903091711 80 175 8.7 18.2 0.00 0.06 0.00 64 1005.4
20260903090711 80 169 8.7 20.0 0.00 0.06 0.00 63 1005.5
20260903085710 80 224 7.8 17.4 0.00 0.06 0.00 63 1005.6
20260903084710 80 199 8.7 17.4 0.00 0.06 0.00 63 1005.7
20260903082710 80 155 10.4 17.4 0.00 0.06 0.00 63 1005.9
20260903081711 80 202 8.7 15.6 0.00 0.06 0.00 63 1005.8
20260903080711 80 192 8.7 17.4 0.00 0.06 0.00 63 1005.9
20260903075711 80 164 7.8 14.8 0.00 0.06 0.00 63 1006.0
20260903074711 80 200 8.7 17.4 0.00 0.06 0.00 63 1006.0
20260903073710 80 163 8.7 14.8 0.00 0.06 0.00 63 1006.2
20260903072711 80 176 7.8 13.0 0.00 0.06 0.00 63 1006.1
20260903071710 80 187 8.7 13.9 0.00 0.06 0.00 63 1006.1
20260903070711 81 192 7.8 13.0 0.00 0.06 0.00 62 1006.3
20260903065710 81 177 8.7 14.8 0.00 0.06 0.00 62 1006.1
20260903064711 81 202 10.4 15.6 0.00 0.06 0.00 62 1006.2
20260903063711 81 188 8.7 13.9 0.00 0.06 0.00 62 1006.3
20260903062711 81 171 7.8 17.4 0.00 0.06 0.00 62 1006.2
20260903061710 81 197 9.6 17.4 0.00 0.06 0.00 61 1006.3
20260903060710 81 172 8.7 13.0 0.00 0.06 0.00 61 1006.2
20260903052711 82 175 10.4 17.4 0.00 0.06 0.00 60 1006.3
20260903051711 83 190 8.7 18.2 0.00 0.06 0.00 59 1006.2
20260903050711 83 168 9.6 15.6 0.00 0.06 0.00 59 1006.2
20260903045711 83 169 8.7 17.4 0.00 0.06 0.06 59 1006.2
20260903044711 83 177 9.6 17.4 0.00 0.06 0.06 59 1006.0
20260903043711 83 176 8.7 17.4 0.00 0.06 0.06 59 1006.2
20260903042710 84 148 10.4 18.2 0.00 0.06 0.06 58 1006.2
20260903040710 84 174 11.3 20.9 0.00 0.06 0.06 57 1006.2
20260903035710 85 196 10.4 18.2 0.00 0.06 0.06 56 1006.0
20260903034711 85 196 11.3 20.9 0.00 0.06 0.06 56 1006.1
20260903033710 85 171 11.3 19.1 0.00 0.06 0.06 56 1006.1
20260903031711 85 184 12.2 19.1 0.00 0.06 0.06 56 1006.1
20260903030710 85 169 11.3 21.7 0.00 0.06 0.06 56 1006.0
20260903025710 85 180 11.3 17.4 0.00 0.06 0.06 57 1005.9
20260903023711 85 159 8.7 15.6 0.00 0.06 0.06 58 1005.8
20260903022711 85 168 8.7 13.0 0.00 0.06 0.06 59 1005.8
20260903021711 85 184 7.8 12.2 0.00 0.06 0.06 60 1005.7
20260903020711 86 175 6.1 11.3 0.00 0.06 0.06 60 1005.6
20260903015711 86 166 7.8 11.3 0.00 0.06 0.06 60 1005.6
20260903013711 87 159 6.1 11.3 0.00 0.06 0.06 62 1005.3
20260903012712 87 158 6.1 10.4 0.00 0.06 0.06 63 1005.5
20260903011711 88 163 5.2 10.4 0.00 0.06 0.06 63 1005.4
20260903010710 89 113 4.3 8.7 0.00 0.06 0.06 64 1005.3
20260903005711 89 121 2.6 7.0 0.00 0.06 0.06 64 1005.4
20260903004710 90 119 3.5 7.8 0.00 0.06 0.06 62 1005.3
20260903003711 90 130 4.3 8.7 0.00 0.06 0.06 61 1005.3
20260903002711 91 133 5.2 7.8 0.00 0.06 0.06 60 1005.3
20260903001711 91 117 4.3 7.0 0.00 0.06 0.06 58 1005.2
20260903000710 91 115 3.5 7.0 0.00 0.06 0.06 57 1005.3
20260902235710 92 148 5.2 7.8 0.00 0.06 0.06 56 1005.5
20260902234710 92 101 3.5 7.8 0.00 0.06 0.06 57 1005.6
20260902233711 92 155 3.5 6.1 0.00 0.06 0.06 56 1005.6
20260902232711 92 139 2.6 5.2 0.00 0.06 0.06 56 1005.6
20260902231710 92 161 3.5 6.1 0.00 0.06 0.06 56 1005.8
20260902230710 92 157 2.6 4.3 0.00 0.06 0.06 56 1005.9
20260902225710 92 166 2.6 4.3 0.00 0.06 0.06 55 1005.9
20260902224710 93 175 1.7 6.1 0.00 0.06 0.06 55 1006.1
20260902223711 93 176 4.3 7.0 0.00 0.06 0.06 55 1006.2
20260902222711 93 150 4.3 10.4 0.00 0.06 0.06 54 1006.3
20260902221711 93 178 3.5 8.7 0.00 0.06 0.06 54 1006.5
20260902220711 93 166 5.2 7.8 0.00 0.06 0.06 54 1006.5